This is the latest recevied weather packets stored in our database for station/object KB2EAR-13. If no packets are shown the sender has not sent any weather packets the latest 1 day(s).
| Time | Temp. | Humidity | Pressure | Rain* | Wind** | Luminosity | Snow |
|---|---|---|---|---|---|---|---|
| 1778001773 | 27.22° C | 44% | 1010.7 hPa | 0 mm | 1.34 m/s, 248° | - | - |
| 1778001617 | 27.22° C | 44% | 1010.7 hPa | 0 mm | 1.34 m/s, 248° | - | - |
| 1778001317 | 26.67° C | 46% | 1010.7 hPa | 0 mm | 0.89 m/s, 270° | - | - |
| 1778001017 | 26.67° C | 44% | 1010.8 hPa | 0 mm | 1.34 m/s, 248° | - | - |
| 1778000717 | 26.67° C | 45% | 1010.7 hPa | 0 mm | 1.34 m/s, 248° | - | - |
| 1778000417 | 26.67° C | 45% | 1010.8 hPa | 0 mm | 1.79 m/s, 270° | - | - |
| 1778000117 | 26.67° C | 45% | 1010.7 hPa | 0 mm | 1.34 m/s, 270° | - | - |
| 1777999817 | 26.67° C | 46% | 1010.9 hPa | 0 mm | 1.34 m/s, 248° | - | - |
| 1777999517 | 26.11° C | 47% | 1010.8 hPa | 0 mm | 0.89 m/s, 248° | - | - |
| 1777999217 | 26.11° C | 47% | 1010.9 hPa | 0 mm | 1.34 m/s, 270° | - | - |
| 1777998917 | 26.11° C | 47% | 1011 hPa | 0 mm | 1.34 m/s, 270° | - | - |
| 1777998617 | 26.11° C | 47% | 1011 hPa | 0 mm | 1.34 m/s, 270° | - | - |
| 1777998325 | 25.56° C | 47% | 1011.1 hPa | 0 mm | 1.79 m/s, 248° | - | - |
| 1777998017 | 25.56° C | 47% | 1011 hPa | 0 mm | 1.79 m/s, 270° | - | - |
| 1777997717 | 25.56° C | 46% | 1011.1 hPa | 0 mm | 1.34 m/s, 248° | - | - |
| 1777997556 | 25.56° C | 49% | 1011 hPa | 0 mm | 0.89 m/s, 270° | - | - |
| 1777997417 | 25.56° C | 49% | 1011 hPa | 0 mm | 0.89 m/s, 270° | - | - |
| 1777997117 | 25.56° C | 48% | 1011.3 hPa | 0 mm | 1.34 m/s, 270° | - | - |
| 1777996909 | 25.56° C | 47% | 1011.5 hPa | 0 mm | 1.34 m/s, 270° | - | - |
| 1777996837 | 25.56° C | 48% | 1011.6 hPa | 0 mm | 1.34 m/s, 270° | - | - |
| 1777996659 | 25.56° C | 48% | 1011.6 hPa | 0 mm | 1.34 m/s, 270° | - | - |
| 1777996517 | 25.56° C | 48% | 1011.6 hPa | 0 mm | 1.34 m/s, 270° | - | - |
| 1777996377 | 25.56° C | 49% | 1011.5 hPa | 0 mm | 1.79 m/s, 270° | - | - |
| 1777996217 | 25.56° C | 49% | 1011.5 hPa | 0 mm | 1.79 m/s, 270° | - | - |
| 1777996054 | 25.56° C | 50% | 1011.6 hPa | 0 mm | 1.34 m/s, 248° | - | - |
* Rain latest hour (hover to see other rain measurements)
** Current wind speed in m/s (hover to see current wind gust speed)